Location: D�rnast
(49.6426°N, 11.9755°E)
Time: 03:17:34
(UTC+00:00)

YAOGAN 1 - Pass Details

Date: 24 January 2021
Orbit: 618 x 620 km, 97.9° (Epoch: 24 February)

Event Time Altitude Azimuth Distance (km) Brightness Sun altitude
Rises 16:26:26 0° 121° (ESE) 2,892 5.6 -5.5°
Reaches altitude 10° 16:29:11 10° 102° (ESE) 1,991 4.7 -5.9°
Maximum altitude 16:32:06 18° 60° (ENE) 1,539 4.0 -6.3°
Drops below altitude 10° 16:35:01 10° 17° (NNE) 2,000 4.8 -6.8°
Sets 16:37:47 0° 359° (N) 2,911 5.8 -7.2°
